Weather History for KP28 - September, 2012

Change the Weather History Date:

Thursday, September 13, 2012

  Actual Average Record
Temperature  
Mean Temperature 58 °F 72 °F  
Max Temperature 60 °F 85 °F 104 °F (1956)
Min Temperature 56 °F 60 °F 39 °F (1974)
Degree Days  
Heating Degree Days 7 1  
Month to date heating degree days 7 1  
Since 1 July heating degree days 7 1  
Cooling Degree Days 0 8  
Month to date cooling degree days 161 129  
Year to date cooling degree days 2132 1640  
Growing Degree Days 8 (Base 50)    
Moisture  
Dew Point 53 °F    
Average Humidity 79    
Maximum Humidity 93    
Minimum Humidity 64    
Precipitation  
Precipitation 0.49 in 0.07 in 1.56 in (1977)
Month to date precipitation 0.54 1.00  
Year to date precipitation 15.78 21.35  
Snow  
Snow 0.00 in 0.00 in - ()
Month to date snowfall 0.0 0.0  
Since 1 July snowfall 0.0 0.0  
Since 1 September snowfall 0.0 0.0  
Snow Depth 0.00 in    
Sea Level Pressure  
Sea Level Pressure 30.26 in    
Wind  
Wind Speed 16 mph (NNE)    
Max Wind Speed 25 mph    
Max Gust Speed 33 mph    
T = Trace of Precipitation, MM = Missing Value Source: NWS Daily Summary

Daily Weather History Graph

Daily Weather History Graph

Search for Another Location

Airport or City:

Trip Planner

Search our weather history database for the weather conditions in past years. The results will help you decide how hot, cold, wet, or windy it might be!

Date:

Astronomy

Sep. 13, 2012 Rise Set
Actual Time 7:15 AM CDT 7:44 PM CDT
Civil Twilight 6:48 AM CDT 8:10 PM CDT
Nautical Twilight 6:18 AM CDT 8:41 PM CDT
Astronomical Twilight 5:46 AM CDT 9:12 PM CDT
Moon 4:38 AM CDT (9/13) 6:06 PM CDT (9/13)
Length of Visible Light 13h 21m
Length of Day
12h 29m
Waning Crescent, 7% of the Moon is Illuminated
Sep 13
Waning Crescent
Sep 15
New
Sep 22
First Quarter
Sep 29
Full
Oct 8
Last Quarter

Hourly Weather History & Observations

Time (CDT) Temp. Dew Point Humidity Pressure Visibility Wind Dir Wind Speed Gust Speed Precip Events Conditions
12:56 AM 60.1 °F 48.0 °F 64% 30.10 in - North 20.7 mph 33.4 mph N/A   Unknown
1:56 AM 59.0 °F 48.9 °F 69% 30.12 in - North 17.3 mph 27.6 mph N/A   Unknown
2:56 AM 57.9 °F 52.0 °F 81% 30.13 in - North 18.4 mph 26.5 mph N/A   Unknown
3:56 AM 57.0 °F 54.0 °F 89% 30.14 in - North 16.1 mph 23.0 mph 0.02 in   Unknown
4:56 AM 57.0 °F 54.0 °F 89% 30.17 in - North 12.7 mph - 0.03 in   Unknown
5:56 AM 57.9 °F 55.0 °F 90% 30.16 in - North 19.6 mph 25.3 mph 0.01 in   Unknown
6:56 AM 57.9 °F 55.0 °F 90% 30.18 in - North 20.7 mph 28.8 mph 0.02 in   Unknown
7:56 AM 57.9 °F 54.0 °F 87% 30.20 in - NNE 18.4 mph 27.6 mph N/A   Unknown
8:56 AM 57.9 °F 54.0 °F 87% 30.24 in - NNE 23.0 mph 31.1 mph N/A   Unknown
9:56 AM 55.9 °F 53.1 °F 90% 30.27 in - NNE 17.3 mph 26.5 mph 0.01 in   Unknown
10:56 AM 55.9 °F 53.1 °F 90% 30.31 in - North 16.1 mph - 0.06 in   Unknown
11:56 AM 55.9 °F 53.1 °F 90% 30.32 in - NNE 19.6 mph 25.3 mph 0.07 in   Unknown
12:56 PM 55.9 °F 53.1 °F 90% 30.32 in - North 16.1 mph 24.2 mph 0.04 in   Unknown
1:56 PM 55.9 °F 53.1 °F 90% 30.32 in - North 16.1 mph 23.0 mph 0.07 in   Unknown
2:56 PM 55.9 °F 53.1 °F 90% 30.34 in - North 15.0 mph 25.3 mph 0.04 in   Unknown
3:56 PM 55.9 °F 53.1 °F 90% 30.33 in - North 18.4 mph 24.2 mph 0.06 in   Unknown
4:56 PM 57.0 °F 53.1 °F 87% 30.29 in - North 20.7 mph 29.9 mph 0.04 in   Unknown
5:56 PM 57.0 °F 53.1 °F 87% 30.29 in - NNE 20.7 mph 31.1 mph 0.02 in   Unknown
6:56 PM 55.9 °F 53.1 °F 90% 30.31 in - North 15.0 mph 24.2 mph N/A   Unknown
7:56 PM 55.9 °F 52.0 °F 87% 30.33 in - North 13.8 mph 20.7 mph N/A   Unknown
8:56 PM 55.9 °F 52.0 °F 87% 30.35 in - NNE 12.7 mph - N/A   Unknown
9:56 PM 55.9 °F 51.1 °F 84% 30.36 in - NNE 12.7 mph - N/A   Unknown
10:56 PM 55.9 °F 51.1 °F 84% 30.37 in - NNE 13.8 mph - N/A   Unknown
11:56 PM 55.9 °F 51.1 °F 84% 30.39 in - NNE 10.4 mph - N/A   Unknown